FW7772 Weather Reports


Display with metric or nautical units.
time (UTC)temp
F
wind
direction
speed
MPH
gust
MPH
rain 1hr
in
rain 24hr
in
rain mn
in
humidity
%
barometer
mb
20260504233120 34 292 5.0 8.0 0.00 0.09 0.00 90 1003.8
20260504232114 35 282 4.0 6.0 0.00 0.09 0.00 90 1003.7
20260504231115 35 289 5.0 8.0 0.00 0.09 0.00 90 1003.8
20260504230115 35 268 3.0 5.0 0.00 0.09 0.00 90 1003.8
20260504230046 35 275 4.0 8.0 0.00 0.09 0.00 90 1003.9
20260504224113 35 305 7.0 10.0 0.00 0.09 0.00 89 1003.8
20260504223113 34 293 7.0 11.0 0.00 0.09 0.00 89 1003.8
20260504222112 35 258 5.0 10.0 0.00 0.09 0.00 88 1003.7
20260504221112 35 278 4.0 9.0 0.01 0.09 0.00 87 1003.6
20260504220112 35 253 2.0 5.0 0.01 0.09 0.00 87 1003.4
20260504215111 36 236 1.0 2.0 0.03 0.09 0.09 87 1003.2
20260504214545 36 236 1.0 3.0 0.04 0.09 0.09 87 1003.4
20260504213110 36 236 1.0 3.0 0.05 0.09 0.09 87 1003.4
20260504212111 36 243 1.0 3.0 0.06 0.09 0.09 87 1003.3
20260504211111 36 295 4.0 8.0 0.06 0.09 0.09 86 1003.1
20260504210111 37 300 4.0 7.0 0.07 0.09 0.08 86 1003.1
20260504205111 37 352 2.0 6.0 0.06 0.06 0.06 86 1003.1
20260504204110 37 310 4.0 9.0 0.05 0.06 0.06 85 1003.2
20260504203110 38 272 4.0 8.0 0.04 0.05 0.05 84 1003.3
20260504202111 38 280 4.0 9.0 0.03 0.03 0.03 84 1003.2
20260504201111 38 300 3.0 5.0 0.02 0.02 0.02 83 1003.1
20260504200111 39 251 5.0 9.0 0.02 0.02 0.02 82 1003.3
20260504195110 39 300 7.0 11.0 0.01 0.01 0.01 81 1003.0
20260504194544 40 300 8.0 11.0 0.01 0.01 0.01 80 1002.9
20260504193107 41 319 9.0 13.0 0.01 0.01 0.00 77 1002.8
20260504192106 42 323 12.0 17.0 0.00 0.00 0.00 74 1002.7
20260504191106 43 317 15.0 23.0 0.00 0.00 0.00 69 1002.4
20260504190551 44 338 13.0 20.0 0.00 0.00 0.00 61 1002.3
20260504185106 45 344 11.0 19.0 0.00 0.00 0.00 57 1002.0
20260504184546 45 310 10.0 16.0 0.00 0.00 0.00 55 1001.9
20260504184035 45 325 10.0 16.0 0.00 0.00 0.00 55 1002.0
20260504182549 46 332 8.0 15.0 0.00 0.00 0.00 54 1002.0
20260504181545 46 331 10.0 21.0 0.00 0.00 0.00 52 1001.9
20260504180106 47 345 14.0 23.0 0.00 0.00 0.00 49 1001.8
20260504175106 48 343 8.0 16.0 0.00 0.00 0.00 48 1001.5
20260504174107 49 341 9.0 15.0 0.00 0.00 0.00 45 1001.7
20260504173546 49 331 14.0 23.0 0.00 0.00 0.00 45 1001.9
20260504172103 50 354 12.0 21.0 0.00 0.00 0.00 41 1002.0
20260504171102 51 335 13.0 24.0 0.00 0.00 0.00 40 1001.9
20260504170540 52 284 15.0 27.0 0.00 0.00 0.00 38 1001.8
20260504151102 55 320 12.0 17.0 0.00 0.00 0.00 24 1000.7
20260504081048 50 78 5.0 9.0 0.00 0.00 0.00 75 1001.9
20260504045039 35 300 0.0 0.0 0.00 0.00 0.00 92 1003.9
20260504044040 34 300 0.0 0.0 0.00 0.01 0.00 92 1003.9
20260504043039 34 300 0.0 0.0 0.00 0.01 0.00 92 1003.8
20260504042038 34 300 0.0 0.0 0.00 0.01 0.00 92 1004.1
20260504041039 33 300 0.0 2.0 0.00 0.01 0.00 92 1004.2
20260504040038 33 300 0.0 2.0 0.00 0.02 0.00 92 1004.4
20260504035527 33 300 0.0 1.0 0.00 0.02 0.00 92 1004.4
20260504034039 33 300 0.0 1.0 0.00 0.02 0.00 92 1004.4
20260504033037 33 300 0.0 2.0 0.00 0.02 0.00 92 1004.5
20260504032037 32 300 2.0 3.0 0.00 0.02 0.00 92 1004.7
20260504031037 32 300 2.0 3.0 0.00 0.02 0.00 92 1004.7
20260504030036 32 300 0.0 0.0 0.00 0.02 0.00 92 1004.8
20260504025521 32 300 0.0 0.0 0.00 0.02 0.00 92 1004.9
20260504024037 32 300 0.0 1.0 0.00 0.02 0.00 92 1005.0
20260504023036 31 300 2.0 3.0 0.00 0.02 0.00 91 1005.1
20260504022036 31 300 1.0 2.0 0.00 0.02 0.00 91 1005.0
20260504021037 31 329 1.0 3.0 0.00 0.02 0.00 91 1005.1
20260504020036 31 327 2.0 3.0 0.00 0.02 0.00 91 1005.2
20260504015036 30 322 3.0 4.0 0.00 0.02 0.00 91 1005.3
20260504014036 30 320 0.0 4.0 0.00 0.02 0.00 91 1005.4
20260504013036 30 305 0.0 0.0 0.00 0.02 0.00 91 1005.7
20260504012037 29 305 2.0 3.0 0.00 0.02 0.00 90 1005.8
20260504011038 29 310 2.0 3.0 0.00 0.02 0.00 90 1006.0
20260504010033 28 291 2.0 4.0 0.00 0.02 0.00 89 1006.1
20260504005031 28 310 1.0 3.0 0.00 0.02 0.00 89 1006.1
20260504004029 28 322 3.0 4.0 0.00 0.02 0.00 89 1006.1
20260504003030 28 320 2.0 3.0 0.00 0.02 0.00 88 1006.3
20260504002030 29 327 1.0 3.0 0.00 0.02 0.00 88 1006.4
20260504001029 29 327 1.0 2.0 0.00 0.02 0.00 88 1006.5
20260504000029 29 327 1.0 3.0 0.00 0.02 0.00 89 1006.5
20260503235030 29 327 1.0 2.0 0.00 0.02 0.00 89 1006.5
20260503234029 29 327 3.0 5.0 0.00 0.02 0.00 88 1006.6